ATLAS 5 CENTAUR DEB, 47096

Orbit data source: Space-Track

ATLAS 5 CENTAUR DEB, 47096 is space debris in HEO originally from a launch on Wed, 17 Sep 2014 UTC launched from the Air Force Eastern Test Range (AFETR). Debris objects in space refer to the collection of defunct objects orbiting the Earth. Examples of debris include non-operational satellites, rocket bodies, and fragments generated from explosions, collisions, or faulty payload assembly.

Loading next visibility...
ATLAS 5 CENTAUR DEB details
Identifier
47096, 2014-055DE
Orbit
HEO
Last TLE update1 day ago
Origin
Flag of USULA (US)
ManufacturerUnknown
MissionSpacecraft
Bus & MotorUnknown
MassUnknown
Launch date (UTC)
2014-09-17 (10 years ago)
Launch vehicleUnknown
Launch site
Air Force Eastern Test Range (AFETR)
Object type
Payload
Rocket body
Debris
Shape & HBRUnknown
Radar Cross SectionRCS unknown

Expand to show TLE details & history

TLE from 1 day ago
0 ATLAS 5 CENTAUR DEB
1 47096U 14055DE  24360.18876235 -.00000033  00000-0  00000-0 0  9993
2 47096  19.7012 217.9890 4856057  36.7442 348.4774  1.79153980 27464
Epoch: 2024-12-25T04:31Z
Definitive object data (Epoch: 2024-12-25T04:31:49.067Z)
Latitude-0.00008°
Longitude55.88818°
Altitude9,350.703 km
Speed6.063 km/s
True Right ascension14h 32m 06s
True Declination0° 00' 00"
Sunlit
Object was in daylight at TLE epoch
Visualization TLE readout
Latitude-8.28183°
Longitude-100.25671°
Altitude35,368.523 km
Speed2.275 km/s
Apparent Right ascension03h 47m 56s
Apparent Declination-12° 44' 39"
Sunlit
Object is in daylight
Visualization observer readout
Local Sidereal Time12:43:39
Azimuth290.668° WNW
Elevation-41.341°
Doppler factor1
Orbital elements
Apogee altitude36,167.039 km
Perigee altitude8,353.225 km
Semi-major axis28,638.269 km
Eccentricity0.4856057
Inclination19.7012°
RAAN217.989°
Arg. of periapsis36.7442°
True anomaly323.59769°
Mean anomaly348.4774°
Eccentric anomaly338.09946°
Mean motion0.44784 °/min
BSTARUnknown
Orbital period803.86 mins
Loading maneuver chart data...

ATLAS 5 CENTAUR DEB Visibility forecast

Observer location: undefined°, undefined

Span
Click to sort rows by Start time (UTC) header in descending order
Start Az.
Max El. time (UTC)
Max El. Az.
Max El.
End time (UTC)
End Az.
705 mins2024-12-26 21:10:59.073Z254.457° W2024-12-26 21:59:59.073Z180.083° SSW40.565°2024-12-27 08:55:59.073Z146.23° SSE
|